Accueil
METAR-TAF:

METAR-TAF

Aéroports :

Épinal, France

Aéroport d'Épinal-Mirecourt

latitude: 48-19-31N, longitude: 6-04-00E, altitude: 330 m

Observation

Le bulletin a été fait il y a 39 minutes, à 19:00 UTC
Vent 6 kt de sud/sud-est
Température 1°C
Humidité 93%
Pression 1016 hPa
Visibilité 10 km ou plus
Quelques nuages à une hauteur de 4200 ft
Nuages fragmentés à une hauteur de 4900 ft
Nuages fragmentés à une hauteur de 5600 ft

METAR: LFSG 121900Z AUTO 15006KT 9999 FEW042 BKN049 BKN056 01/M00 Q1016

Heure: 20:39 (19:39 UTC)


TAF: absent

Observations et prévisions météorologiques de plus de 4000 aéroports (messages METAR et TAF).

Les stations disponibles sont représentées par des disques jaunes et rouges sur la carte.

Passer la souris dessus pour voir le nom de la station.

Cliquer dessus pour voir les observations et prévisions météorologiques.

Pour changer de carte: cliquez sur les boutons verts avec une croix noire pour zoomer, sur le bouton vert avec un tiret pour effectuer un zoom arrière, ou sur les flèches vertes pour les cartes adjacentes.


METAR-TAF: